This demonstration page uses our WeatherBlox Daily Observations layout. Learn more.

Left ArrowRight Arrow

Hourly Observations for August 14, 2022

Temp ( °F °C ) Dew Point ( °F °C ) Humidity (%) Winds ( mph kmh ) Pressure ( in mb ) Visibility ( mi km ) Precip ( " mm )
12:53 am 00:53 Clear 69 20.6 67 19.4 93 93 Calm 30.06 1018 10 16 0.00 0.00
1:53 am 01:53 Clear 69 20.6 67 19.4 93 93 Calm 30.04 1017 10 16 0.00 0.00
2:53 am 02:53 Clear 69 20.6 66 18.9 90 90 Calm 30.02 1017 10 16 0.00 0.00
3:53 am 03:53 Clear 67 19.4 66 18.9 97 97 Calm 30.03 1017 10 16 0.00 0.00
4:53 am 04:53 Clear 67 19.4 65 18.3 93 93 Calm 30.02 1017 10 16 0.00 0.00
5:53 am 05:53 Clear 67 19.4 65 18.3 93 93 Calm 30.01 1016 10 16 0.00 0.00
6:53 am 06:53 Clear 66 18.9 65 18.3 96 96 Calm 30.02 1017 10 16 0.00 0.00
7:53 am 07:53 Sunny 68 20 66 18.9 93 93 Calm 30.03 1017 10 16 0.00 0.00
8:53 am 08:53 Sunny 73 22.8 68 20 84 84 Calm 30.04 1017 10 16 0.00 0.00
9:53 am 09:53 Sunny 77 25 67 19.4 71 71 VRB 3 6 30.05 1018 10 16 0.00 0.00
10:53 am 10:53 Sunny 80 26.7 67 19.4 64 64 SW 7 11 30.05 1018 10 16 0.00 0.00
11:53 am 11:53 Mostly Cloudy 83 28.3 67 19.4 59 59 VRB 6 9 30.05 1018 10 16 0.00 0.00
12:53 pm 12:53 Partly Cloudy 84 28.9 67 19.4 57 57 W 7 11 30.03 1017 10 16 0.00 0.00
1:53 pm 13:53 Partly Cloudy 85 29.4 65 18.3 51 51 undefined N/A 30.02 1017 10 16 0.00 0.00
2:53 pm 14:53 Sunny 85 29.4 64 17.8 50 50 S 6 9 30.00 1016 10 16 0.00 0.00
3:53 pm 15:53 Partly Cloudy 87 30.6 65 18.3 48 48 W 7 11 29.99 1016 10 16 0.00 0.00
4:53 pm 16:53 Mostly Sunny 87 30.6 64 17.8 46 46 VRB 5 7 29.97 1015 10 16 0.00 0.00
5:53 pm 17:53 Sunny 88 31.1 63 17.2 43 43 WSW 8 13 29.96 1014 10 16 0.00 0.00
6:53 pm 18:53 Sunny 87 30.6 64 17.8 46 46 WSW 7 11 29.94 1014 10 16 0.00 0.00
7:53 pm 19:53 Sunny 85 29.4 64 17.8 50 50 SW 5 7 29.95 1014 10 16 0.00 0.00
8:53 pm 20:53 Clear 82 27.8 67 19.4 60 60 SW 3 6 29.95 1014 10 16 0.00 0.00
9:53 pm 21:53 Clear 78 25.6 68 20 71 71 Calm 29.96 1015 10 16 0.01 0.13
10:53 pm 22:53 Clear 74 23.3 69 20.6 85 85 Calm 29.96 1015 10 16 0.00 0.00
11:53 pm 23:53 Clear 74 23.3 69 20.6 85 85 Calm 29.96 1014 10 16 0.00 0.00

Powered by AerisWeather